          29  11 14.57  +59 09.7   2.015  1.563    15.9 /  61   7.6  117  .89



2001Q4 20040515.95426163  0.9618856296 1.0007523934   1.20735248 210.27798638  9

9.64214162 20040604.       +0.000026 -0.000719 7  NEAT                  2001Q4  

 9.0  5N   4.5  8N  214 010824-030720 0.66   .   unpublish 03n          M_v 2003

0720(428)

2001Q4 20040515.95641211  0.9619694680 1.0007097004   1.20237782 210.27339404  9

9.64088824 20030829.



NAKANO

         **** Don't distribute anyone except personal use only ****

                (C) Copyright 2003 OAA/ComputingSection

write mail from CFAD0::NAKANO on 2003-08-04 04:48:10(JST).

 

 C/2001 Q4 (NEAT)                                                      

Epoch 2004 June 4.0 TT = JDT 2453160.5  

T 2004 May 15.94262 TT                                  Nakano

q   0.9618719            (2000.0)            P               Q

z  -0.0007900      Peri.    1.20706     -0.86517406     -0.06624302

 +/-0.0000070      Node   210.27829     -0.46795758     -0.24964021

e   1.0007599      Incl.   99.64251     -0.18024857     +0.96607020

From 181 observations 2001 Aug. 24-2002 Dec. 1, mean residual 0".67.

   (1/a)org.= +0.000019, (1/a)fut.= -0.000727 (+/-0.000007), Q= 7.

NAKANO

         **** Don't distribute anyone except personal use only ****

                (C) Copyright 2002 OAA/ComputingSection

write mail from CFAD0::NAKANO on 2002-12-16 23:29:08(JST).

 

    C/2001 Q4 (NEAT)                                                      

Epoch 2004 June 4.0 TT = JDT 2453160.5  

T 2004 May 15.95279 TT                                 Nakano

q   0.9618917            (2000.0)            P               Q

z  -0.0007841      Peri.    1.20711     -0.86517553     -0.06624002

 +/-0.0000077      Node   210.27813     -0.46795557     -0.24964264

e   1.0007542      Incl.   99.64231     -0.18024672     +0.96606978

From 166 observations 2001 Aug. 24-2002 Nov. 13, mean residual 0".64.

   (1/a)org.= +0.000025, (1/a)fut.= -0.000721 (+/-0.000008), Q= 7.



NAKANO

         **** Don't distribute anyone except personal use only ****

                (C) Copyright 2002 OAA/ComputingSection

write mail from CFAD0::NAKANO on 2002-11-19 01:50:02(JST).

 

    C/2001 Q4 (NEAT)                                                      

Epoch 2004 June 4.0 TT = JDT 2453160.5  

T 2004 May  15.94429 TT                                 Nakano

q   0.9618860            (2000.0)            P               Q

z  -0.0007901      Peri.    1.20676     -0.86517446     -0.06624632

 +/-0.0000110      Node   210.27821     -0.46795512     -0.24964416

e   1.0007600      Incl.   99.64241     -0.18025306     +0.96606895

From 148 observations 2001 Aug. 24-2002 Oct. 14, mean residual 0".63.

   (1/a)org.= +0.000019, (1/a)fut.= -0.000727 (+/-0.000011), Q= 7.



NAKANO

         **** Don't distribute anyone except personal use only ****

                (C) Copyright 2002 OAA/ComputingSection

write mail from CFAD0::NAKANO on 2002-10-29 00:21:33(JST).

 

 ◎C/2001 Q4の軌道と予報位置です



 9月12日の久万(中村彰正)の CCD全光度は16.6等,23日の豊中(江崎裕介)

のそれは16.6等,10月5日の久万の光度は16.4等でした.これらより,K=10と

したときのH10 = 4.0等となります.このまま,増光を続けることを期待しま

しょう.



    C/2001 Q4 (NEAT)                                                      

Epoch 2004 June 4.0 TT = JDT 2453160.5  

T 2004 May 15.93319 TT                                  Nakano

q   0.9618736            (2000.0)            P               Q

z  -0.0007973      Peri.    1.20648     -0.86517177     -0.06625441

 +/-0.0000136      Node   210.27848     -0.46795758     -0.24964172

e   1.0007669      Incl.   99.64275     -0.18025956     +0.96606903

From 142 observations 2001 Aug. 24-2002 Oct. 5, mean residual 0".64.

   (1/a)org.= +0.000011, (1/a)fut.= -0.000734 (+/-0.000014), Q= 7.



 

Date/        TT  R.A.(2000) Decl.     Delta   r     Daily motion  Mag.  Moon Age

              h    h  m       。  ,                      ,  / PA 。  m1      。

2002 Oct.  5 18  02 49.62  -37 42.4   6.228  6.896    10.3 / 222  14.7  131  .01

           6 18  02 49.04  -37 50.1   6.218  6.887    10.3 / 223  14.7  133  .00

           7 18  02 48.44  -37 57.6   6.209  6.879    10.3 / 224  14.7  132  .03

           8 18  02 47.83  -38 05.1   6.199  6.870    10.3 / 225  14.7  127  .08

           9 18  02 47.22  -38 12.4   6.190  6.861    10.3 / 225  14.6  119  .15

          10 18  02 46.59  -38 19.7   6.181  6.853    10.4 / 226  14.6  111  .24

          11 18  02 45.96  -38 26.8   6.172  6.844    10.4 / 227  14.6  102  .34

          12 18  02 45.31  -38 33.9   6.164  6.836    10.4 / 228  14.6   93  .45

          13 18  02 44.66  -38 40.8   6.156  6.827    10.4 / 229  14.6   84  .55

          14 18  02 43.99  -38 47.7   6.148  6.818    10.4 / 229  14.6   75  .65

          15 18  02 43.32  -38 54.4   6.140  6.810    10.3 / 230  14.6   67  .74

          16 18  02 42.64  -39 01.0   6.132  6.801    10.3 / 231  14.6   60  .82

          17 18  02 41.95  -39 07.5   6.125  6.792    10.3 / 232  14.6   54  .89

          18 18  02 41.25  -39 13.9   6.118  6.784    10.3 / 233  14.6   50  .94

          19 18  02 40.54  -39 20.1   6.111  6.775    10.3 / 233  14.6   47  .98

          20 18  02 39.83  -39 26.3   6.105  6.766    10.3 / 234  14.6   47 1.00

          21 18  02 39.11  -39 32.3   6.098  6.758    10.3 / 235  14.6   50 1.00

          22 18  02 38.38  -39 38.2   6.092  6.749    10.2 / 236  14.6   54  .98

          23 18  02 37.65  -39 43.9   6.086  6.740    10.2 / 237  14.6   60  .95

          24 18  02 36.91  -39 49.5   6.080  6.732    10.2 / 237  14.5   67  .90

          25 18  02 36.16  -39 55.0   6.075  6.723    10.2 / 238  14.5   75  .83

          26 18  02 35.41  -40 00.3   6.070  6.714    10.1 / 239  14.5   83  .75

          27 18  02 34.65  -40 05.5   6.065  6.705    10.1 / 240  14.5   92  .65

          28 18  02 33.89  -40 10.5   6.060  6.697    10.1 / 241  14.5  101  .55

          29 18  02 33.12  -40 15.4   6.055  6.688    10.0 / 242  14.5  110  .44

          30 18  02 32.35  -40 20.2   6.051  6.679    10.0 / 242  14.5  118  .34

          31 18  02 31.58  -40 24.8   6.047  6.671     9.9 / 243  14.5  125  .23

     Nov.  1 18  02 30.80  -40 29.2   6.043  6.662     9.9 / 244  14.5  131  .14

           2 18  02 30.02  -40 33.5   6.039  6.653     9.8 / 245  14.5  133  .07

           3 18  02 29.23  -40 37.6   6.036  6.644     9.8 / 246  14.5  132  .02

           4 18  02 28.45  -40 41.6   6.033  6.636     9.7 / 247  14.5  127  .00

           5 18  02 27.66  -40 45.4   6.030  6.627     9.7 / 248  14.5  119  .01

 

 

2004年の接近時は,予報どおり明るくなれば,1等級で観測可能ですが,(1/a)org.

が小さいのは気がかりなことです.

 

Date/  0h TT  R.A.(2000) Decl.     Delta   r     Daily motion  Mag.  Moon Age

                h  m       。  ,                      ,  / PA 。  m1      。

2004 Mar. 16  00 06.07  -65 30.6   1.525  1.408    15.8 /  92   6.1   56  .27

          21  00 18.75  -65 30.7   1.407  1.351    19.0 /  95   5.8   63  .00

          26  00 34.02  -65 36.6   1.283  1.296    23.4 /  97   5.4   97  .23

          31  00 52.93  -65 47.0   1.155  1.242    29.7 /  97   5.1  122  .69

     Apr.  5  01 17.12  -65 58.6   1.023  1.192    39.0 /  95   4.7  112 1.00

          10  01 49.11  -66 02.9   0.888  1.145    53.4 /  90   4.2   79  .74

          15  02 32.51  -65 39.1   0.752  1.101    77.1 /  81   3.7   65  .21

          20  03 30.87  -63 57.2   0.618  1.062   118.3 /  69   3.2   78  .00

          25  04 43.43  -59 06.5   0.491  1.029   191.0 /  53   2.6   89  .25

          30  05 59.79  -47 48.7   0.386  1.001   293.7 /  38   1.9   87  .72

     May   5  07 05.87  -27 01.1   0.325  0.981   339.3 /  27   1.5  105 1.00

          10  07 55.94  -01 25.4   0.337  0.967   261.2 /  24   1.5  153  .66

          15  08 32.10  +18 26.4   0.415  0.962   163.7 /  25   2.0  118  .16

          20  08 58.34  +30 43.4   0.529  0.965   102.4 /  27   2.5   61  .01

          25  09 17.88  +38 15.3   0.658  0.975    68.1 /  29   3.0   16  .28

          30  09 32.95  +43 09.6   0.792  0.993    48.3 /  31   3.5   63  .77

     June  4  09 45.04  +46 34.0   0.926  1.018    36.2 /  33   3.9  128  .99

           9  09 55.14  +49 03.8   1.056  1.049    28.5 /  36   4.3  142  .59

          14  10 03.97  +50 58.4   1.182  1.086    23.5 /  39   4.6   91  .13

          19  10 12.00  +52 29.4   1.302  1.128    20.2 /  42   5.0   45  .01

          24  10 19.59  +53 43.9   1.415  1.174    18.0 /  45   5.3   43  .32

          29  10 26.97  +54 46.8   1.521  1.223    16.6 /  48   5.6   94  .83

     July  4  10 34.32  +55 41.3   1.621  1.275    15.8 /  52   5.9  141  .96

           9  10 41.77  +56 29.5   1.713  1.330    15.3 /  54   6.2  115  .53

NAKANO

         **** Don't distribute anyone except personal use only ****

                (C) Copyright 2002 OAA/ComputingSection

write mail from CFAD0::NAKANO on 2002-10-08 02:23:30(JST).

 

    C/2001 Q4 (NEAT) 

Epoch 2004 June 4.0 TT = JDT 2453160.5  

T 2004 May  15.92856 TT                                 Nakano

q   0.9618721            (2000.0)            P               Q

z  -0.0008002      Peri.    1.20625     -0.86517219     -0.06625664

 +/-0.0000196      Node   210.27840     -0.46795555     -0.24964494

e   1.0007697      Incl.   99.64265     -0.18026281     +0.96606804

From 136 observations 2001 Aug. 24-2002 Sept. 12, mean residual 0".64.

   (1/a)org.= +0.000008, (1/a)fut.= -0.000737 (+/-0.000020), Q= 7.



NAKANO

         **** Don't distribute anyone except personal use only ****

                (C) Copyright 2002 OAA/ComputingSection

write mail from CFAD0::NAKANO on 2002-09-17 00:59:40(JST).

 





◎C/2001 Q4の軌道と予報位置です



 上尾の門田健一氏は,8月20日に南の低空にあるこの彗星の観測に成功し

ました.氏の CCD全光度は,16.6等で,ほぼ,予報光度どおりでした.この

軌道からの彗星の原初軌道は,(1/a)origin= -0.000017となります.この値

では,東京の蓮尾隆一氏の指摘によると,この彗星は期待どおり,明るくは

ならないことになります.なお,9月上旬以後は,薄明前に彗星が南中しま

す.



    C/2001 Q4 (NEAT) 

Epoch 2004 June 4.0 TT = JDT 2453160.5  

T 2004 May 15.89095 TT                                  Nakano

